Wind_Speed
14 14 14 13 12 11 11 11 10 10 9 9 9 8 9 8 8 8 8 8 7 7 7 8 9 8 8 7 7 6 5 6 8 9 9 8 9 11 12 11 12 12 8 12 16 16 18 18 18 16 12 11 11 11 12 11 8 4 2 1 1 1 2 2 2 3 4 8 10 11 12 9 9 12 12 10 14 18 17 19 19 18 25 27 31 39 35 34
15 15 14 14 13 13 12 12 12 11 11 10 9 9 8 8 8 7 7 8 8 8 7 8 9 9 9 8 7 6 6 6 8 10 7 6 12 13 14 13 13 14 12 14 18 18 20 20 19 17 13 12 11 12 12 9 7 3 2 2 1 2 3 5 4 4 5 9 11 12 12 9 10 13 15 11 11 15 15 19 24 24 26 29 37 37 34 36
16 15 15 14 14 13 13 13 12 12 12 11 10 10 9 9 8 7 7 7 8 9 8 8 9 9 9 9 8 7 7 6 6 5 4 5 10 12 14 15 15 15 12 14 17 17 18 19 18 16 14 12 10 13 12 8 5 3 2 1 3 2 2 5 6 4 6 14 14 12 13 9 11 13 13 13 10 11 13 18 25 27 30 34 36 36 35 34
17 17 16 15 14 13 13 13 13 13 13 12 11 11 10 9 9 7 6 7 8 9 9 9 8 8 10 10 8 7 7 4 1 5 4 3 6 9 13 15 16 15 13 13 15 17 18 16 14 13 13 10 10 14 12 9 7 3 3 2 3 1 1 3 5 6 7 17 16 12 12 9 15 13 9 15 10 5 12 21 29 34 37 38 37 36 34 31
18 18 17 16 15 14 14 13 13 13 12 12 12 11 10 10 9 7 6 6 7 8 9 9 8 8 9 10 9 7 5 2 5 8 6 5 6 5 10 14 16 15 15 16 17 19 18 16 12 11 11 10 8 10 9 14 11 2 3 6 5 3 1 3 7 8 9 15 16 13 12 11 15 9 5 9 6 6 16 25 34 41 42 41 40 36 33 32
19 19 17 16 16 15 14 14 13 13 13 12 11 11 10 9 9 7 6 6 7 8 8 8 8 8 8 9 10 7 3 2 6 8 6 6 6 4 7 13 16 16 17 18 19 20 18 16 11 11 11 7 6 6 8 18 13 2 4 7 8 6 2 6 10 11 14 14 13 15 16 16 16 10 6 6 4 10 22 29 36 41 42 42 40 36 34 33
19 18 17 16 16 15 14 14 14 13 13 13 12 11 10 9 8 7 6 6 7 7 8 7 7 8 7 8 8 6 6 4 5 8 9 6 4 3 6 11 16 18 20 21 22 21 19 16 12 12 9 5 6 7 11 20 16 5 3 5 7 7 7 10 12 13 18 15 13 17 19 18 16 9 9 11 11 16 26 33 35 38 39 39 38 35 34 35
19 18 17 16 15 15 15 14 14 14 14 14 13 11 10 9 8 7 6 6 7 7 7 7 7 7 6 7 6 6 8 4 6 7 6 3 0 2 5 11 17 20 22 24 23 21 18 16 15 13 7 5 6 5 12 14 10 7 3 7 6 6 10 13 15 16 17 14 12 15 17 16 20 15 11 14 21 22 28 36 35 37 38 36 36 35 34 34
18 18 16 15 15 15 15 15 14 15 15 14 13 12 10 9 8 7 6 6 7 8 7 6 7 6 5 5 5 6 4 4 6 4 2 3 3 4 6 10 17 22 23 24 23 19 16 15 15 12 6 8 8 5 15 11 5 10 7 10 6 8 17 16 16 15 11 7 6 11 14 16 25 18 8 14 27 26 29 37 35 37 37 33 35 36 35 33
18 18 16 15 14 14 15 15 15 15 15 14 14 12 10 8 7 6 6 6 8 8 6 5 6 6 4 3 2 2 2 6 3 1 1 5 6 7 7 10 17 23 24 25 24 20 17 14 11 9 8 9 7 7 18 9 5 13 13 11 7 11 19 17 16 17 13 7 7 10 9 13 20 10 4 17 28 25 29 36 35 37 35 31 34 36 34 32
17 18 16 14 13 14 14 15 15 15 15 15 13 12 10 7 6 6 5 6 7 7 6 5 6 6 5 4 5 3 4 5 0 2 3 5 8 9 8 12 18 23 26 26 24 19 15 10 5 7 7 6 6 4 14 5 6 14 17 8 6 11 12 12 13 19 16 8 9 12 9 8 8 5 10 22 23 23 30 35 34 34 32 30 33 34 31 31
17 17 16 14 13 14 14 15 15 16 16 15 13 11 9 6 5 5 5 6 7 6 6 6 6 6 5 7 10 5 6 6 2 2 4 3 7 7 7 13 19 24 27 25 20 15 9 4 7 10 9 7 7 3 5 6 6 17 19 7 6 7 6 5 10 16 11 7 15 14 9 3 2 5 15 24 22 25 33 34 33 32 30 31 32 32 31 30
18 17 17 14 13 13 14 16 16 16 16 15 13 10 7 5 4 5 5 6 6 5 5 6 6 7 6 8 7 5 9 8 3 1 4 1 7 9 10 14 19 24 24 20 15 10 8 8 12 16 14 9 5 4 6 11 4 15 13 6 6 4 2 5 10 14 8 9 20 9 5 2 4 3 9 21 23 26 32 33 32 30 30 31 32 32 31 30
19 18 17 14 13 14 15 16 17 16 16 15 13 10 6 4 4 4 5 5 5 3 3 5 6 7 7 8 3 7 10 10 9 5 2 3 10 11 12 14 18 24 20 15 11 6 6 9 14 17 14 8 5 7 8 7 2 9 7 5 4 3 3 4 6 12 6 9 13 2 3 3 2 5 1 15 23 26 31 32 31 30 30 32 33 34 32 31
19 19 18 15 13 14 15 16 17 16 16 14 12 9 5 4 4 4 4 5 4 2 2 4 5 6 9 9 4 8 8 11 14 8 2 4 11 12 13 13 17 22 18 11 5 3 6 10 11 10 7 5 5 6 3 4 2 5 6 2 1 2 5 3 3 8 7 7 6 5 4 4 4 5 2 11 22 25 29 31 30 30 32 33 34 34 32 32
19 19 17 15 13 14 16 17 17 16 15 14 11 7 5 4 4 4 4 3 2 1 1 2 4 5 7 7 6 10 8 12 14 7 4 7 9 11 12 12 14 18 14 8 4 6 8 9 6 2 0 2 2 2 3 4 4 1 5 4 3 3 4 2 1 4 6 8 5 2 2 3 5 7 7 14 21 22 24 29 30 30 32 33 33 32 30 32
19 18 16 14 14 16 17 18 17 15 14 13 10 6 5 3 3 3 3 3 2 2 2 2 4 6 7 4 6 9 11 14 13 9 9 9 7 8 11 10 11 12 10 7 7 8 8 6 1 0 0 0 1 4 3 1 3 3 2 4 5 7 7 5 3 4 6 7 7 7 5 6 6 8 14 17 18 17 17 26 30 29 32 32 31 30 28 30
19 17 15 14 14 17 18 18 17 15 13 12 8 6 4 4 4 4 4 4 2 3 3 4 4 4 5 6 5 7 13 15 13 12 11 10 11 10 11 10 10 11 10 8 9 8 6 3 2 0 2 1 1 4 3 4 4 2 3 4 4 7 9 9 6 7 10 6 7 9 7 8 8 8 15 17 17 15 11 21 30 31 33 32 29 29 27 29
17 15 13 13 15 16 18 18 17 16 13 10 7 5 3 6 4 3 4 4 4 3 2 5 8 2 4 7 7 6 11 14 10 12 13 12 12 12 13 12 11 11 9 5 6 7 4 1 2 1 2 4 5 5 6 6 2 1 1 5 5 5 5 7 6 8 13 7 6 10 8 10 10 8 12 16 17 16 10 15 27 32 33 31 28 29 28 29
16 13 12 13 14 16 17 17 17 17 13 7 6 5 4 6 2 2 4 8 9 9 10 11 12 13 14 12 10 6 10 14 11 13 14 13 12 13 16 14 11 9 6 5 3 7 6 2 1 4 6 8 8 7 8 7 4 5 3 4 7 6 3 7 6 8 12 7 6 9 9 10 12 9 12 16 17 16 12 13 24 28 28 27 27 30 31 28
14 12 12 12 13 15 17 17 17 16 11 7 7 7 6 6 3 3 9 11 13 14 16 16 16 20 22 16 11 9 7 12 14 15 13 13 11 12 16 13 8 5 5 7 5 4 6 4 5 8 9 10 8 8 8 7 6 7 5 3 7 7 7 11 10 10 12 6 5 9 10 10 10 8 9 13 11 9 11 15 23 25 23 25 26 30 33 28
13 12 11 12 12 15 16 16 16 14 10 7 8 8 7 8 7 8 11 11 15 17 15 15 16 20 21 19 15 13 12 10 13 15 14 14 11 10 12 9 5 4 5 6 4 1 4 4 9 11 10 9 8 8 8 8 6 6 5 3 6 6 6 8 9 12 11 4 5 10 10 6 5 7 9 9 5 3 2 11 23 26 22 25 28 30 32 28
13 11 11 11 12 14 14 14 12 11 10 7 6 7 8 9 8 10 11 9 12 14 12 12 14 16 16 16 9 8 13 11 13 15 15 16 14 12 11 8 5 5 4 4 5 4 4 6 12 13 9 8 8 9 8 7 5 5 6 3 5 7 9 6 7 11 6 2 5 9 7 5 7 9 10 8 7 5 4 7 15 23 23 25 28 30 29 30
12 11 10 11 12 14 13 11 9 10 10 7 7 7 6 7 7 11 12 5 5 8 11 12 11 14 15 10 5 15 13 11 13 15 16 17 16 12 9 8 6 5 5 6 7 6 5 10 14 12 9 8 8 9 8 6 5 6 8 5 5 11 13 9 8 9 4 8 5 8 7 3 4 4 4 6 11 11 12 14 12 15 21 22 24 26 26 30
12 11 11 11 12 13 11 8 8 10 10 10 13 10 5 5 7 11 9 2 4 5 6 8 9 12 10 3 8 10 6 8 13 15 19 18 16 11 7 9 7 4 7 8 7 6 8 14 12 9 9 9 7 8 7 6 5 5 8 8 10 14 14 12 12 9 4 4 1 4 4 0 1 3 5 6 7 7 12 18 17 16 19 20 21 23 22 27
11 11 11 12 12 11 8 6 7 9 9 9 14 12 7 5 8 12 6 3 3 3 1 4 6 5 4 5 10 5 1 6 11 15 21 18 16 12 5 6 6 6 8 7 4 3 7 13 9 8 11 9 8 8 7 7 5 4 7 8 14 17 13 13 15 10 4 4 9 8 3 2 3 4 8 9 9 8 9 14 17 17 20 22 22 23 20 23
11 10 11 11 11 10 9 7 7 8 9 9 10 10 8 6 8 11 4 4 3 2 1 3 5 2 3 7 10 6 2 3 7 13 20 18 16 14 6 3 3 5 5 3 3 4 7 10 8 9 10 8 7 7 7 7 6 5 7 5 13 14 12 15 16 9 4 4 8 9 2 3 3 3 9 12 10 10 9 10 13 16 20 24 25 23 21 22
10 9 9 10 10 9 9 8 7 8 8 9 9 7 5 5 9 8 2 3 1 1 1 4 4 3 5 9 14 12 1 4 1 11 21 19 14 12 7 5 3 4 5 2 4 6 6 9 9 9 9 7 6 7 8 7 5 7 6 2 6 8 10 16 13 6 5 6 5 7 3 4 1 2 7 11 10 10 11 11 13 17 21 24 27 25 22 21
10 9 8 9 8 8 7 5 6 7 7 8 8 5 3 6 8 4 3 2 2 2 2 4 3 3 6 8 11 11 6 7 2 13 22 18 12 9 5 5 4 4 6 5 6 6 5 10 10 9 7 7 8 10 10 7 5 8 4 2 2 4 6 10 8 5 6 6 6 10 7 4 1 3 6 8 9 10 11 10 12 19 22 25 29 27 26 22
10 9 8 8 8 8 7 4 4 6 8 8 6 5 7 8 4 3 3 1 1 2 3 3 3 4 5 3 3 5 5 6 3 12 15 12 11 8 2 4 5 2 4 3 5 6 8 13 10 6 8 10 10 11 9 10 9 5 2 3 4 4 4 3 3 5 5 2 8 13 10 4 1 3 6 6 6 9 11 9 11 19 22 26 30 29 28 24
9 9 7 8 8 9 9 5 4 5 7 7 5 8 9 6 2 5 2 1 1 1 1 1 2 3 5 4 2 3 2 2 3 8 7 5 4 3 0 2 3 1 3 4 3 5 5 7 6 4 9 10 9 8 6 8 7 1 3 4 3 0 2 2 3 2 5 3 7 12 9 5 3 4 8 9 6 8 12 10 11 16 19 24 29 28 29 27
8 9 7 8 8 9 9 6 4 4 5 6 9 10 6 3 3 1 0 1 1 1 1 3 3 3 5 5 3 3 3 2 3 5 4 4 2 3 3 3 2 1 3 3 3 5 4 4 4 4 6 7 6 3 3 4 2 4 4 4 3 1 2 2 2 1 3 4 9 15 9 4 4 3 8 13 9 9 12 12 14 18 18 22 25 25 28 29
8 9 7 7 7 6 6 5 4 2 3 6 11 8 3 5 2 3 2 1 1 2 3 4 3 3 5 4 2 4 3 1 4 5 5 4 3 3 4 5 5 4 1 2 2 3 3 4 3 3 4 4 7 4 2 3 2 3 4 4 4 2 2 3 3 3 3 2 7 12 7 1 3 3 2 5 5 8 14 15 16 19 20 22 23 24 27 31
9 8 6 6 4 3 3 6 6 3 5 10 9 4 5 4 1 4 3 2 2 1 1 1 2 2 4 3 3 3 3 2 3 6 4 3 3 2 4 5 5 4 1 2 2 2 2 4 3 4 4 3 5 5 6 4 1 1 4 5 4 3 4 4 5 5 3 3 4 4 2 1 2 2 5 5 8 6 6 13 17 19 20 23 25 24 26 29
8 6 5 4 2 1 3 7 7 6 9 11 7 4 5 2 3 2 3 3 3 3 4 4 1 3 2 2 3 3 4 2 2 3 1 3 3 2 3 3 4 4 3 1 2 2 2 3 6 5 6 7 5 4 6 5 1 3 2 5 3 3 4 3 3 5 6 5 2 2 0 2 2 3 5 8 13 19 17 7 5 12 20 23 22 22 24 26
7 6 5 4 1 1 3 5 6 7 10 9 6 3 1 2 2 2 3 3 4 4 5 8 5 3 1 2 2 3 3 2 2 3 0 2 3 2 2 1 2 3 5 3 2 2 2 4 6 4 4 7 7 5 5 5 2 2 2 2 4 4 6 2 2 1 6 5 1 2 2 1 1 2 6 8 10 14 19 17 14 7 12 22 19 18 20 22
6 7 8 4 3 3 2 3 4 6 9 7 4 1 3 3 2 2 3 5 6 4 4 4 3 3 1 1 4 3 2 2 1 2 0 0 3 5 4 1 7 6 2 2 2 0 1 3 6 2 2 5 6 7 4 5 7 2 1 3 3 1 4 3 0 1 4 4 1 2 2 2 1 1 2 6 8 9 9 10 9 12 9 15 18 17 15 16
4 7 9 4 5 4 3 2 4 6 5 5 2 3 2 2 4 4 6 8 5 4 5 3 1 1 3 2 3 4 3 3 3 1 0 2 3 6 6 3 6 10 9 5 2 0 2 1 7 3 1 3 3 7 3 1 4 4 2 1 2 1 1 1 1 2 3 3 2 2 2 0 0 1 1 4 7 8 7 9 9 6 6 10 13 16 17 14
6 10 6 5 5 4 4 2 5 4 3 4 2 4 2 1 6 11 13 9 3 4 4 2 2 2 3 3 2 4 6 5 4 3 2 2 1 2 5 5 5 10 13 9 3 2 2 3 4 6 2 2 4 4 3 3 3 3 1 2 2 3 3 2 2 3 4 4 3 3 1 1 1 2 2 6 5 7 9 8 8 9 9 12 13 14 17 17
8 9 4 5 5 3 5 5 4 3 2 0 3 3 3 2 7 15 17 11 4 3 1 1 4 3 2 5 3 3 6 6 4 2 2 3 1 1 6 8 5 7 10 8 4 2 3 3 1 7 6 2 1 0 5 4 1 2 0 2 1 1 1 2 1 2 5 4 4 4 1 2 2 2 3 7 5 4 9 10 9 11 15 17 17 15 17 19
7 6 2 5 6 4 7 8 3 1 2 2 3 2 3 3 6 13 18 16 7 4 4 3 4 4 3 5 4 3 3 4 5 4 2 3 2 2 7 9 6 6 6 5 5 3 2 1 0 3 4 1 3 5 6 7 5 5 3 2 2 1 1 1 2 3 2 4 4 5 4 2 3 2 4 6 5 2 6 12 13 14 17 19 19 19 18 18
6 2 2 7 8 5 7 6 2 2 2 2 2 1 4 4 4 9 16 16 10 6 7 4 3 4 4 3 3 4 4 2 3 4 1 2 3 0 7 13 13 9 5 1 3 3 0 1 1 2 3 4 7 6 2 4 4 4 2 2 3 3 3 4 2 2 2 5 4 3 4 1 2 3 6 7 7 4 4 11 16 15 17 19 18 18 18 17
8 5 4 6 9 10 6 1 3 2 3 4 3 2 3 4 4 7 10 11 8 5 6 4 2 3 4 3 3 5 6 3 1 2 1 1 2 2 7 16 16 10 5 1 3 5 3 2 2 3 4 5 6 4 4 4 3 1 1 1 2 1 3 5 4 3 3 4 4 4 3 2 1 4 10 13 13 11 7 10 16 17 18 19 18 17 16 16
12 8 5 3 10 12 6 1 2 1 2 2 1 3 4 6 6 5 5 6 6 4 3 3 2 3 3 3 3 5 5 2 0 2 2 1 1 4 9 13 11 6 3 0 1 5 4 1 2 3 4 6 6 6 7 6 3 1 2 3 2 1 6 6 3 4 3 1 4 6 3 2 2 4 8 12 14 14 10 9 15 19 19 19 19 19 18 17
10 7 7 5 5 9 4 2 3 1 2 3 3 3 3 4 6 9 7 6 7 7 3 3 5 4 3 3 4 5 6 2 0 3 4 1 0 4 9 8 5 3 4 3 4 3 2 1 3 4 3 1 2 1 2 4 3 2 2 4 4 3 4 5 3 4 2 2 3 5 5 3 3 4 5 6 9 12 11 10 15 20 21 20 20 20 21 21
6 3 7 9 3 2 4 4 5 5 3 4 3 3 2 0 3 13 13 6 7 9 4 4 8 6 5 5 4 4 6 5 4 3 4 4 3 1 6 5 2 5 7 8 8 3 2 2 3 3 4 4 5 4 4 3 1 3 4 5 5 4 4 6 5 3 5 5 3 3 12 11 6 6 7 6 9 11 11 12 14 18 21 22 22 22 23 22
4 2 4 6 6 5 8 11 11 6 4 5 2 3 5 4 2 9 13 8 8 11 6 5 9 5 4 5 4 2 4 5 6 5 4 5 4 3 5 3 3 8 7 7 9 5 3 4 4 1 2 2 5 4 5 2 2 4 6 6 6 5 5 6 4 5 7 7 3 5 16 18 11 11 12 10 10 11 12 15 16 18 22 24 24 24 24 23
4 2 4 6 3 2 5 7 7 8 7 6 3 3 7 9 5 5 8 10 13 14 9 6 8 7 5 4 4 2 3 3 4 5 4 5 5 5 6 4 7 13 8 5 8 6 4 2 4 4 6 5 3 4 6 3 4 5 6 7 8 8 6 5 5 7 7 7 7 10 14 17 14 14 13 12 13 14 16 18 20 22 24 25 25 23 22 23
6 3 6 10 5 2 8 10 7 10 8 5 5 5 5 8 7 4 5 6 7 10 9 6 7 8 8 7 5 3 4 3 2 4 4 5 5 5 5 4 8 14 10 4 5 5 4 2 5 5 5 6 8 8 7 5 5 5 6 6 6 7 7 5 6 6 6 9 13 12 10 9 10 11 12 15 20 22 21 21 22 22 23 23 24 24 22 22
8 4 8 12 8 8 15 14 6 8 7 5 4 4 4 6 5 4 4 5 3 5 8 8 8 7 9 9 8 5 4 4 3 3 4 4 5 4 3 1 3 9 10 4 4 5 3 2 4 5 4 5 8 8 8 7 5 4 5 6 6 8 9 7 6 7 11 13 14 14 11 6 5 11 15 20 24 23 21 21 20 21 22 24 26 26 24 22
5 4 8 7 4 9 14 9 4 5 3 3 2 2 3 4 4 4 3 7 7 4 4 6 6 7 8 10 9 5 6 7 6 7 6 4 3 4 3 2 1 3 6 4 3 4 4 2 3 5 4 3 6 9 10 8 6 5 5 6 6 6 5 5 5 7 12 16 15 14 11 5 6 13 18 22 24 22 20 21 21 22 24 26 27 27 25 24
5 4 8 4 1 8 11 5 3 5 2 2 3 4 4 4 8 9 4 5 11 13 12 11 8 6 6 8 8 9 10 10 10 11 11 9 9 9 8 9 6 3 2 3 3 3 3 3 2 4 2 3 7 8 7 5 6 4 3 4 2 4 6 6 4 8 16 18 14 11 8 7 10 14 15 16 19 20 20 23 25 25 25 26 26 25 24 23
Wind_Direction
2 360 357 354 351 346 342 338 334 331 329 327 324 325 328 332 335 334 332 328 323 320 318 316 314 316 313 302 296 290 278 265 259 256 249 222 199 193 187 180 176 185 180 164 173 174 174 184 184 181 186 203 220 223 221 217 204 172 114 73 131 132 147 193 182 155 134 140 153 166 168 153 148 160 162 139 125 130 131 138 138 134 142 150 153 152 151 152
3 2 359 356 352 347 343 337 331 327 323 323 321 320 323 326 330 332 330 323 319 320 319 316 315 317 312 305 303 299 296 281 267 260 248 203 197 195 183 180 174 181 187 174 179 178 173 179 178 177 190 214 228 210 204 198 191 186 104 77 203 190 166 168 150 142 141 142 142 157 173 165 153 158 153 133 124 134 128 130 130 126 136 145 148 150 153 153
359 358 357 355 353 349 345 338 333 327 322 321 319 319 319 321 324 327 327 320 315 316 317 316 315 317 313 308 309 311 315 300 279 260 227 192 193 193 182 180 174 177 187 179 182 176 164 164 167 177 193 221 235 195 187 184 191 201 119 78 251 241 162 138 142 169 158 147 139 148 170 162 146 152 148 136 127 135 141 143 138 133 140 146 150 153 153 154
354 353 352 351 350 348 345 340 335 330 327 322 319 319 316 317 318 320 323 316 310 310 312 315 313 317 314 310 314 319 334 335 131 109 102 134 167 189 187 180 174 176 181 178 184 176 165 166 175 190 196 226 231 187 181 186 185 178 146 189 221 203 93 132 156 178 161 145 142 155 171 154 149 160 148 134 126 138 156 153 148 146 148 151 153 154 153 156
353 351 350 349 347 346 344 342 338 333 329 324 321 318 314 313 313 317 320 311 306 305 308 313 315 319 316 313 318 325 347 39 131 116 94 93 115 169 187 182 174 173 177 177 185 184 181 190 210 227 217 229 213 174 187 190 178 149 205 220 207 171 125 189 176 175 166 148 151 166 174 156 144 139 98 117 121 159 161 155 152 152 152 153 154 153 154 157
353 352 350 349 347 346 344 342 340 336 331 325 320 315 311 307 308 314 313 306 301 300 304 313 319 320 320 316 320 326 332 133 141 139 133 105 92 130 178 182 173 170 176 176 184 190 194 204 229 242 228 224 191 179 199 188 176 146 227 224 216 205 194 192 180 176 168 160 174 171 157 137 112 87 90 114 107 143 156 153 152 153 153 153 154 154 155 159
353 353 352 351 349 347 345 343 341 337 332 329 324 317 309 303 305 309 308 304 296 296 302 312 321 319 322 321 321 322 292 246 157 144 147 121 80 122 170 185 177 173 177 178 183 191 199 209 226 235 233 221 196 204 197 186 181 187 212 197 205 212 225 207 178 172 166 170 194 163 136 121 110 116 145 140 124 131 149 149 148 153 153 153 154 155 158 161
353 354 354 352 351 350 348 346 343 338 335 332 330 321 310 302 301 305 304 299 292 294 301 313 322 315 322 323 319 311 291 246 154 143 148 156 298 168 179 192 185 179 179 179 180 186 199 214 226 230 236 213 219 218 183 177 188 216 202 170 187 174 192 199 173 165 161 171 196 147 113 116 134 143 139 135 131 132 146 148 146 150 153 156 157 158 160 162
352 353 354 353 353 352 350 350 346 342 338 334 332 326 316 304 299 304 300 295 290 291 302 316 316 310 319 311 309 309 283 141 133 137 166 236 246 215 204 198 191 185 180 177 178 183 199 214 219 220 233 233 253 227 177 163 199 220 182 163 183 154 165 180 171 157 142 160 180 123 99 121 137 129 111 142 137 135 147 148 148 151 154 157 157 160 161 161
348 350 353 353 353 351 349 349 347 344 340 337 335 330 322 307 298 301 295 292 287 291 306 312 311 308 305 282 280 303 163 132 115 57 298 256 237 227 219 197 192 188 179 175 179 186 197 201 207 232 266 254 263 218 184 177 234 200 165 160 171 148 158 170 161 133 120 156 152 117 108 137 143 123 125 159 146 142 148 149 151 152 156 157 155 160 162 164
345 346 349 349 350 351 349 347 345 342 339 339 336 332 326 310 299 295 289 288 283 296 308 302 308 295 293 274 228 211 153 144 157 8 347 274 233 225 213 188 188 187 178 176 181 185 191 194 219 279 290 272 303 249 185 207 292 170 144 137 139 124 143 165 147 115 113 175 169 124 113 138 151 123 154 165 155 150 150 149 153 155 158 160 158 161 164 167
343 343 345 345 346 350 349 347 344 341 338 337 336 333 327 310 293 286 284 284 283 300 304 299 303 286 293 272 238 207 157 165 231 334 354 302 208 196 186 179 184 184 177 176 180 185 199 249 279 267 270 290 323 322 194 305 317 152 135 107 122 110 115 115 98 94 87 199 183 136 98 62 21 99 148 162 156 152 152 151 156 158 160 160 159 163 166 169
343 341 342 341 342 348 350 346 342 340 337 335 334 330 326 311 287 281 279 280 290 305 303 298 296 292 290 263 234 148 159 177 212 298 6 2 159 149 159 172 179 180 177 175 177 194 233 280 279 260 267 293 302 295 290 309 281 158 139 111 126 113 120 70 86 102 77 196 186 148 82 22 342 22 140 159 158 154 154 154 158 160 160 160 163 168 171 174
344 341 340 339 340 345 348 345 341 338 336 335 330 325 323 304 279 278 278 282 296 301 297 298 302 302 278 255 175 134 168 182 202 202 53 107 138 133 146 162 176 179 180 185 184 207 256 295 288 265 265 281 285 300 308 315 275 156 127 99 125 138 160 33 81 125 106 197 198 101 87 143 262 313 7 165 165 159 156 156 160 161 161 164 168 175 177 178
344 340 338 338 338 343 347 345 341 337 336 334 327 321 312 291 278 280 287 292 289 272 297 307 321 317 285 271 182 154 170 184 193 183 134 150 139 137 141 149 174 182 188 200 207 270 301 310 293 256 254 280 300 323 335 335 332 141 121 112 195 158 150 50 67 143 128 182 226 360 76 125 204 247 294 178 168 160 159 159 162 163 163 168 174 180 181 181
343 339 337 337 337 341 344 344 341 338 337 333 324 314 296 284 276 279 295 297 264 210 283 309 329 325 291 276 177 163 168 182 182 163 191 190 147 139 132 137 167 184 198 219 275 301 295 300 293 222 209 303 284 5 20 355 338 150 132 153 181 136 142 119 102 178 140 144 186 266 137 144 207 202 186 185 173 164 163 161 164 165 165 171 178 183 183 183
342 339 338 336 337 341 343 344 341 339 339 332 321 306 293 287 277 282 295 285 246 209 217 248 298 304 278 237 172 180 175 173 172 169 199 207 188 157 136 151 174 186 209 238 273 275 267 271 268 208 14 271 176 83 57 341 279 278 105 132 170 147 151 161 153 206 182 149 159 176 186 184 182 174 174 184 181 174 173 167 166 165 167 174 180 184 183 179
342 340 339 337 338 341 344 344 341 340 341 334 321 302 292 300 287 277 287 287 270 243 242 232 237 307 274 203 189 207 184 177 182 186 199 206 212 197 165 175 189 195 212 236 249 239 244 262 128 9 323 248 213 118 144 209 196 206 113 118 161 156 165 173 163 185 184 159 151 163 175 170 157 161 169 177 181 178 180 170 165 164 170 176 179 182 180 170
343 343 341 338 341 344 346 346 345 343 343 341 330 316 338 348 318 249 272 270 247 251 257 222 204 225 275 228 255 261 191 185 193 193 200 196 200 199 175 177 191 189 188 202 236 217 203 14 93 195 274 231 227 185 201 231 200 3 63 121 145 157 178 185 165 170 171 153 167 172 157 154 158 168 168 175 181 176 170 158 158 165 171 175 177 180 177 165
345 347 343 342 346 347 349 348 347 346 347 6 10 4 22 7 358 197 285 274 271 284 281 268 243 250 275 277 289 286 183 187 200 194 195 193 189 183 169 172 184 178 165 156 207 219 191 117 180 212 222 223 232 217 217 242 267 303 309 123 142 147 168 205 186 173 174 159 176 172 148 155 165 167 168 172 175 172 169 146 149 163 169 171 174 174 174 168
347 349 345 346 349 350 351 348 349 354 1 34 36 24 20 7 11 344 323 300 299 301 287 285 268 261 275 283 298 303 227 198 196 190 188 191 184 174 171 170 171 177 196 181 176 212 183 179 226 220 222 224 234 237 231 241 247 262 266 136 155 169 175 197 186 173 184 170 154 158 149 160 162 158 156 155 159 176 182 156 150 160 161 164 169 169 171 170
349 350 346 346 351 353 352 349 356 6 10 20 18 18 25 22 21 357 339 312 304 305 294 290 277 271 274 277 293 292 251 201 181 188 188 184 175 177 180 164 155 196 215 189 159 159 183 218 237 226 226 228 238 247 244 246 237 244 251 154 176 190 159 189 189 176 188 175 147 155 145 132 103 97 92 95 77 15 206 165 157 160 156 159 166 168 170 169
347 348 346 345 352 354 352 354 3 6 4 8 9 28 42 32 23 357 338 305 296 300 284 274 275 273 273 282 283 213 202 182 175 188 187 183 178 183 183 158 164 196 202 195 167 157 188 230 232 227 228 223 237 247 245 252 246 240 242 184 177 170 147 184 202 177 172 59 132 138 108 60 39 60 79 109 141 137 182 192 168 163 159 159 166 170 170 169
345 344 343 344 351 353 352 357 3 354 350 2 11 25 32 21 17 347 333 303 287 286 253 246 262 264 272 293 200 170 171 176 187 186 185 189 183 178 189 181 174 188 207 200 178 176 217 232 222 220 226 217 229 244 238 240 246 244 235 210 166 166 170 178 167 155 84 29 71 96 74 28 16 53 93 148 165 163 173 190 203 185 166 162 169 172 171 169
341 340 340 341 348 352 352 357 2 352 351 9 12 7 359 12 12 341 333 338 290 280 241 234 242 253 267 269 187 181 158 188 203 190 186 191 183 176 201 198 175 195 217 202 185 190 235 241 222 210 229 223 222 243 233 211 225 254 240 211 167 169 182 168 142 134 83 33 155 131 98 212 265 173 179 167 165 171 172 186 212 210 182 178 180 177 172 170
340 337 338 340 347 355 357 358 360 358 3 17 15 10 5 11 354 329 327 53 322 275 195 204 206 234 245 192 199 200 62 222 222 203 192 192 193 189 196 200 183 204 209 194 190 187 231 239 218 200 224 226 223 239 231 199 192 246 242 202 171 174 180 158 148 149 134 157 190 184 136 141 202 207 185 169 165 178 183 190 206 208 195 194 191 185 178 172
336 335 337 339 348 355 355 355 2 10 10 4 1 0 8 8 333 318 328 59 1 280 166 175 179 217 203 184 194 179 69 255 223 206 195 188 196 198 202 237 201 215 214 168 198 223 224 227 211 202 217 223 226 237 227 189 170 237 252 188 169 180 177 159 158 167 158 133 170 183 133 111 198 214 175 169 164 172 189 196 201 200 199 199 198 196 185 173
329 330 334 337 346 353 353 352 2 17 4 347 346 341 356 359 324 322 34 87 324 289 150 169 187 237 200 189 198 197 243 349 125 193 194 188 191 191 202 235 202 243 261 188 217 248 227 214 202 191 204 221 224 230 223 184 177 240 249 171 167 173 163 159 162 167 141 105 144 196 155 96 238 210 159 169 170 178 193 194 194 194 196 198 198 201 193 178
319 322 330 332 336 342 344 336 345 6 354 344 357 356 346 337 324 341 85 94 287 253 172 168 191 213 194 195 209 215 265 312 258 185 187 188 192 189 198 223 210 268 260 201 211 253 251 235 214 172 184 218 219 233 224 182 211 241 203 125 71 86 123 149 159 154 130 123 174 201 183 124 243 204 161 176 185 189 194 192 193 191 192 195 196 199 199 192
309 313 323 324 325 332 330 321 326 347 356 0 11 1 342 332 335 52 54 42 257 231 166 170 210 181 171 180 239 235 251 287 226 170 176 186 198 206 222 228 224 289 282 231 222 238 253 259 249 182 189 211 214 235 228 195 217 241 141 91 59 55 72 116 170 145 120 154 194 196 191 153 146 205 191 199 196 187 186 187 191 190 189 192 195 198 200 201
298 301 312 317 322 326 324 336 346 336 354 5 349 338 338 338 64 83 59 172 210 278 98 201 229 159 157 164 227 234 199 267 192 150 169 193 198 215 135 257 254 347 337 318 290 269 267 267 268 219 202 197 197 231 244 221 221 163 79 100 112 315 68 73 335 83 133 219 204 188 185 168 170 209 212 213 206 186 187 187 184 185 186 189 195 197 200 202
285 289 303 316 320 321 321 345 4 333 342 345 335 337 351 32 46 72 183 226 247 283 229 227 216 175 183 179 207 217 154 231 217 138 158 174 159 210 184 186 193 50 328 292 302 306 287 245 250 246 220 174 156 212 280 289 323 80 99 104 120 251 97 122 330 15 183 226 192 173 159 178 222 242 211 201 199 190 186 187 183 179 178 185 193 194 197 201
271 278 294 310 316 320 329 3 7 325 332 336 337 343 49 74 25 258 267 292 236 198 194 214 210 178 169 158 225 225 147 232 222 157 162 151 130 228 231 215 179 140 255 252 338 323 300 286 265 249 258 169 136 147 201 258 355 86 152 135 133 155 116 157 183 189 231 225 170 162 135 168 247 333 315 187 189 192 183 181 180 177 177 181 186 189 194 198
263 271 286 299 309 312 353 27 17 347 352 345 343 13 69 56 292 260 292 293 264 230 160 228 233 189 159 163 216 197 131 283 224 154 155 118 91 220 247 255 208 147 99 338 335 220 213 293 252 206 233 194 142 147 161 170 348 238 185 138 133 161 145 165 182 181 188 135 123 127 94 299 220 313 336 40 49 49 146 176 177 175 181 179 176 182 191 196
256 262 285 305 310 301 31 28 7 355 357 352 359 68 67 16 275 300 323 307 322 333 349 359 97 152 186 224 229 195 154 218 223 120 137 171 145 207 225 260 239 163 119 13 276 237 178 247 247 226 210 191 180 178 145 110 5 271 178 112 129 190 149 155 196 159 135 127 69 50 70 297 240 258 333 35 49 39 39 48 159 167 166 163 161 171 184 191
253 257 288 303 241 141 40 12 348 351 356 4 36 58 4 234 230 309 312 318 332 328 353 4 32 80 312 298 313 262 173 176 206 130 24 195 125 357 256 261 312 145 141 157 242 325 8 271 282 303 241 203 179 168 134 120 165 292 9 155 217 188 131 127 262 127 101 113 98 73 114 324 270 261 351 29 55 48 44 37 13 12 126 129 129 148 170 184
254 265 282 267 172 139 70 14 321 327 349 26 61 339 247 228 263 295 324 344 342 353 42 25 11 47 17 344 335 300 140 54 306 153 261 250 61 350 311 19 40 49 81 155 178 190 94 285 294 314 259 232 157 121 87 117 139 129 311 242 248 89 112 116 159 37 69 96 116 65 118 171 195 211 360 39 66 71 76 82 42 4 45 95 104 118 139 167
273 289 280 221 129 105 98 74 275 286 351 43 21 290 229 240 320 345 353 348 347 22 52 41 319 56 60 41 327 330 76 59 359 23 58 83 59 345 330 352 30 24 16 36 78 333 96 345 299 298 194 270 87 94 79 356 105 128 194 221 87 105 213 191 162 154 98 107 120 54 45 87 229 251 99 86 99 108 111 112 108 73 42 67 85 98 106 130
322 322 295 178 123 87 111 143 242 248 24 42 304 292 257 263 340 346 347 348 19 57 50 27 5 16 39 45 331 354 50 58 15 19 48 46 52 328 351 345 351 9 17 42 77 308 68 106 293 307 326 326 11 71 175 275 12 87 74 8 76 155 181 188 190 154 126 134 140 104 15 299 235 252 104 108 120 127 119 109 105 103 82 68 75 90 95 103
333 333 311 172 146 125 152 178 213 174 92 185 222 261 279 334 340 337 347 1 26 53 43 7 23 21 7 27 14 4 46 48 14 33 64 12 7 59 10 3 351 357 12 44 73 358 31 85 262 303 328 31 19 250 170 167 100 106 61 334 335 311 229 205 251 90 118 137 142 131 156 278 246 205 133 126 126 123 125 119 106 99 86 74 76 86 90 92
339 327 304 155 150 157 161 168 203 178 145 265 244 263 326 357 339 341 359 14 23 42 43 37 44 35 8 26 21 359 41 45 21 42 55 19 49 38 8 18 18 360 11 33 32 24 30 65 204 303 337 18 239 240 179 154 142 142 166 208 189 154 135 158 311 327 94 118 145 150 150 270 273 154 120 110 99 100 125 114 106 100 89 79 80 84 86 88
357 320 178 149 164 199 175 160 224 210 179 272 235 229 338 342 359 355 2 12 17 26 29 30 56 43 26 30 34 33 47 47 35 47 33 40 87 287 4 29 34 32 45 38 312 329 21 96 37 309 290 270 265 259 186 132 120 131 166 172 145 141 139 144 199 261 68 88 94 94 102 167 285 106 114 110 92 73 88 103 104 98 91 89 88 87 88 89
344 306 244 187 191 202 189 177 319 229 215 255 206 173 340 357 11 359 1 8 5 5 18 22 40 53 41 19 28 48 43 23 48 72 347 23 46 336 18 35 34 32 44 42 310 333 348 67 31 322 300 303 306 325 17 45 70 76 309 64 103 169 144 147 173 158 112 117 117 84 90 164 208 100 131 139 122 104 99 107 107 101 94 93 92 90 90 89
338 318 294 236 197 193 177 192 275 258 272 308 43 76 55 43 15 2 5 352 350 360 5 356 16 70 54 13 30 53 43 35 315 18 26 84 30 20 38 43 35 26 34 120 280 339 351 52 58 24 356 346 349 1 4 360 14 13 311 338 343 89 119 116 97 78 79 180 143 119 118 153 144 119 131 138 130 122 129 128 112 106 101 95 92 90 88 86
347 335 334 340 202 205 226 235 200 133 40 28 39 50 67 46 20 29 20 342 4 25 13 355 14 44 55 27 42 38 30 55 240 348 14 8 315 41 39 40 40 18 2 330 298 319 4 75 80 93 102 50 22 10 322 305 314 324 327 360 19 57 112 118 98 79 111 166 125 123 131 112 106 122 124 135 135 130 134 132 115 110 107 101 96 92 87 84
14 2 340 352 8 259 314 19 72 84 57 43 34 353 10 151 34 32 22 347 356 8 11 20 8 19 55 46 56 36 12 22 30 28 30 356 309 2 18 21 35 5 356 350 345 357 97 60 56 116 151 173 190 219 247 250 295 340 343 15 30 32 84 112 114 124 150 130 63 130 140 133 138 155 154 161 149 135 138 141 128 118 114 107 101 96 90 86
37 46 349 352 357 355 13 35 54 66 51 60 65 324 22 55 51 31 22 1 6 12 18 22 7 20 78 63 75 49 357 20 26 20 25 1 324 312 341 356 30 13 7 5 9 40 100 27 9 352 309 231 205 237 286 306 60 25 14 34 29 22 66 93 112 149 145 114 71 171 146 141 161 174 167 168 156 142 147 150 141 128 120 113 104 97 90 87
28 342 359 6 340 308 358 17 51 66 51 54 55 3 48 54 42 40 20 4 19 30 25 7 14 38 62 69 95 53 355 46 31 2 3 353 343 353 348 347 21 23 32 36 23 58 117 29 346 320 330 333 329 338 337 3 65 37 30 51 38 31 59 88 123 145 146 127 145 173 155 146 160 172 169 165 155 149 151 150 142 132 124 116 107 99 91 85
23 337 345 1 357 304 344 353 45 70 51 44 41 19 56 62 37 23 20 7 15 28 31 13 6 36 51 54 80 71 24 53 31 1 7 351 351 17 6 342 1 11 22 39 19 45 109 31 342 332 337 340 345 355 358 13 48 37 25 39 37 40 71 115 139 127 108 115 132 144 141 137 151 163 164 157 151 150 150 146 141 135 128 118 109 101 92 84
30 12 341 347 347 349 355 1 52 79 44 38 56 20 32 69 42 353 22 54 24 355 25 24 359 29 58 51 57 61 30 47 57 19 21 15 1 8 12 310 324 358 10 21 3 17 57 32 346 5 12 339 342 357 357 357 33 55 17 11 34 51 67 90 109 97 92 107 123 127 122 117 135 145 145 146 149 149 146 142 137 130 123 113 106 102 97 91
56 45 2 341 332 358 358 356 57 86 48 20 62 48 37 60 41 6 32 67 59 23 28 42 27 29 42 42 44 23 350 12 19 351 355 17 350 321 314 299 291 20 12 1 354 13 31 20 8 38 37 327 338 357 350 352 35 58 8 358 31 62 81 97 112 123 122 123 126 128 131 146 153 141 135 137 142 142 135 131 125 119 117 112 106 103 103 101
79 56 22 11 349 9 1 337 26 66 81 354 35 73 88 75 51 45 49 51 51 52 50 53 58 48 36 32 14 341 338 353 349 337 339 336 325 325 329 333 351 52 55 358 8 16 25 32 45 63 58 305 326 346 349 10 35 28 325 314 21 83 104 103 99 131 136 136 139 146 151 157 152 141 131 130 134 132 128 126 122 118 115 113 110 108 107 109
Height
1513 1512 1511 1511 1510 1509 1508 1507 1507 1506 1506 1506 1506 1505 1505 1505 1505 1504 1503 1503 1503 1502 1502 1501 1500 1500 1499 1498 1498 1498 1498 1498 1498 1497 1497 1496 1497 1497 1498 1499 1500 1502 1503 1504 1505 1505 1506 1507 1509 1511 1513 1514 1514 1514 1514 1513 1512 1513 1516 1521 1523 1524 1524 1519 1518 1519 1519 1521 1522 1523 1524 1525 1528 1530 1531 1532 1532 1531 1532 1535 1536 1537 1538 1540 1542 1545 1548 1551
1513 1512 1511 1510 1509 1509 1508 1507 1506 1505 1505 1505 1505 1504 1504 1504 1504 1503 1503 1502 1502 1501 1501 1500 1500 1499 1498 1498 1497 1497 1497 1497 1497 1496 1495 1495 1495 1496 1497 1498 1499 1500 1501 1502 1503 1504 1505 1506 1508 1510 1512 1512 1513 1513 1513 1512 1511 1513 1516 1521 1521 1519 1518 1514 1514 1514 1514 1517 1518 1521 1523 1524 1526 1527 1528 1529 1531 1532 1533 1535 1537 1539 1541 1543 1545 1547 1550 1551
1513 1512 1511 1510 1509 1508 1507 1506 1505 1505 1504 1504 1503 1503 1503 1503 1503 1502 1502 1501 1501 1500 1500 1499 1499 1498 1497 1497 1496 1496 1496 1495 1495 1494 1493 1494 1494 1495 1496 1497 1498 1499 1500 1502 1503 1504 1505 1506 1508 1510 1511 1511 1512 1512 1512 1511 1511 1511 1515 1520 1518 1513 1512 1511 1512 1513 1514 1515 1515 1518 1521 1523 1525 1525 1526 1528 1531 1533 1533 1534 1535 1538 1541 1544 1546 1548 1550 1552
1513 1512 1511 1509 1509 1508 1507 1506 1505 1504 1503 1503 1502 1502 1502 1501 1501 1501 1501 1500 1500 1499 1499 1498 1498 1497 1497 1496 1496 1496 1495 1494 1493 1493 1493 1493 1494 1495 1496 1496 1497 1498 1500 1502 1503 1505 1505 1507 1509 1510 1511 1511 1510 1511 1511 1511 1511 1511 1513 1516 1512 1510 1511 1511 1511 1512 1515 1516 1514 1516 1520 1523 1525 1526 1527 1527 1532 1535 1533 1533 1533 1535 1539 1542 1546 1549 1551 1553
1512 1511 1510 1509 1508 1507 1506 1505 1504 1503 1502 1501 1501 1501 1500 1500 1500 1500 1500 1499 1499 1498 1498 1498 1497 1497 1496 1495 1496 1495 1495 1495 1493 1492 1493 1493 1494 1495 1495 1496 1496 1497 1499 1501 1502 1504 1505 1506 1508 1509 1510 1509 1509 1510 1509 1508 1510 1511 1511 1509 1507 1508 1511 1509 1509 1511 1515 1519 1519 1518 1519 1522 1525 1529 1529 1528 1532 1534 1532 1534 1535 1535 1537 1541 1545 1548 1551 1553
1512 1511 1510 1508 1507 1506 1505 1504 1503 1502 1501 1501 1500 1499 1499 1499 1499 1499 1498 1498 1497 1497 1497 1497 1496 1496 1495 1495 1495 1494 1495 1495 1492 1491 1493 1493 1494 1494 1495 1496 1496 1497 1498 1500 1501 1503 1504 1505 1507 1508 1507 1506 1507 1509 1507 1507 1508 1511 1511 1507 1506 1507 1508 1508 1508 1509 1512 1518 1522 1519 1517 1521 1525 1529 1531 1530 1531 1532 1533 1535 1537 1538 1539 1542 1545 1548 1551 1553
1512 1510 1509 1508 1507 1505 1504 1504 1503 1501 1501 1500 1499 1498 1498 1497 1497 1497 1497 1497 1496 1496 1496 1496 1496 1495 1495 1494 1494 1494 1493 1492 1490 1491 1492 1492 1493 1494 1494 1495 1495 1496 1496 1498 1499 1501 1503 1504 1505 1505 1505 1506 1506 1505 1505 1505 1506 1509 1510 1506 1506 1507 1505 1506 1507 1509 1510 1514 1519 1516 1516 1523 1524 1525 1528 1529 1527 1529 1534 1536 1538 1540 1542 1544 1546 1549 1551 1553
1511 1510 1509 1507 1506 1505 1504 1503 1502 1501 1500 1499 1498 1497 1497 1496 1496 1496 1496 1496 1495 1495 1495 1495 1495 1494 1494 1494 1493 1493 1492 1490 1490 1491 1491 1492 1493 1493 1494 1494 1494 1494 1495 1497 1498 1500 1502 1502 1503 1503 1504 1504 1504 1504 1502 1505 1508 1507 1508 1506 1506 1507 1504 1504 1507 1511 1512 1513 1518 1515 1517 1523 1522 1521 1525 1526 1526 1530 1534 1537 1540 1542 1544 1546 1548 1549 1552 1554
1511 1509 1508 1507 1505 1504 1503 1502 1501 1500 1499 1498 1497 1496 1496 1495 1495 1495 1495 1495 1494 1494 1494 1494 1494 1494 1493 1493 1493 1492 1490 1489 1490 1490 1490 1491 1492 1492 1492 1492 1493 1493 1494 1496 1498 1500 1501 1500 1501 1502 1503 1502 1502 1502 1500 1505 1509 1504 1504 1505 1505 1506 1504 1505 1508 1512 1515 1517 1519 1517 1518 1521 1520 1521 1526 1527 1528 1532 1535 1537 1540 1542 1545 1547 1548 1550 1552 1554
1510 1509 1507 1506 1505 1504 1502 1501 1500 1499 1498 1497 1496 1495 1495 1494 1494 1494 1494 1494 1493 1493 1493 1493 1493 1493 1493 1493 1493 1492 1489 1489 1490 1489 1490 1490 1490 1490 1491 1491 1492 1493 1494 1495 1497 1498 1498 1498 1499 1501 1502 1500 1500 1500 1499 1502 1503 1499 1502 1504 1504 1505 1505 1506 1509 1514 1519 1520 1520 1518 1519 1521 1520 1523 1528 1528 1528 1532 1535 1537 1540 1542 1544 1547 1548 1550 1552 1554
1509 1508 1507 1505 1504 1503 1502 1500 1499 1498 1497 1496 1495 1494 1493 1493 1493 1493 1493 1492 1492 1492 1492 1492 1492 1492 1492 1492 1492 1490 1488 1488 1489 1489 1489 1488 1488 1489 1489 1490 1491 1492 1494 1495 1496 1497 1498 1498 1500 1501 1501 1499 1498 1499 1498 1499 1498 1497 1501 1505 1506 1505 1506 1507 1510 1518 1523 1521 1520 1518 1518 1521 1522 1524 1527 1527 1529 1532 1534 1537 1540 1542 1544 1547 1548 1551 1552 1554
1509 1507 1506 1505 1503 1502 1501 1499 1498 1497 1496 1495 1494 1493 1492 1492 1492 1492 1492 1491 1491 1492 1492 1491 1491 1491 1491 1491 1489 1488 1487 1488 1489 1489 1489 1487 1487 1488 1488 1489 1490 1492 1493 1494 1496 1497 1498 1499 1500 1501 1500 1498 1498 1499 1498 1497 1496 1497 1500 1507 1510 1507 1510 1511 1512 1520 1524 1523 1520 1517 1523 1527 1526 1527 1527 1527 1529 1531 1534 1537 1540 1542 1544 1546 1548 1551 1553 1554
1507 1506 1505 1504 1503 1501 1500 1499 1497 1496 1495 1494 1493 1492 1492 1491 1491 1491 1491 1491 1491 1491 1491 1491 1490 1490 1490 1489 1486 1486 1488 1488 1489 1489 1488 1487 1487 1487 1488 1489 1491 1493 1495 1495 1496 1497 1498 1499 1499 1500 1499 1498 1498 1498 1497 1494 1495 1498 1499 1505 1513 1516 1516 1513 1513 1519 1522 1525 1519 1517 1534 1541 1532 1530 1529 1529 1530 1531 1534 1537 1539 1542 1544 1546 1548 1550 1552 1553
1507 1505 1504 1503 1502 1501 1499 1498 1496 1495 1494 1493 1492 1491 1491 1490 1490 1490 1490 1490 1490 1490 1490 1490 1490 1490 1489 1486 1483 1485 1487 1487 1488 1488 1488 1488 1487 1487 1488 1489 1491 1494 1495 1495 1496 1496 1497 1498 1498 1497 1497 1497 1496 1495 1496 1494 1495 1499 1503 1507 1514 1523 1522 1514 1514 1517 1518 1523 1519 1519 1539 1545 1535 1531 1530 1530 1531 1531 1533 1535 1538 1541 1543 1545 1548 1549 1551 1552
1506 1504 1503 1502 1501 1500 1499 1497 1496 1494 1493 1491 1491 1490 1490 1490 1490 1490 1490 1489 1489 1490 1490 1490 1490 1489 1488 1484 1482 1484 1485 1486 1487 1486 1488 1488 1488 1488 1488 1490 1492 1494 1496 1496 1496 1496 1496 1496 1496 1495 1496 1495 1494 1496 1499 1498 1496 1498 1510 1519 1518 1521 1523 1516 1515 1516 1517 1520 1520 1526 1541 1544 1535 1531 1530 1530 1531 1531 1532 1534 1537 1539 1541 1544 1546 1548 1550 1551
1505 1503 1502 1501 1500 1499 1498 1496 1495 1493 1492 1490 1490 1489 1489 1489 1489 1489 1489 1489 1489 1489 1489 1490 1489 1489 1488 1483 1481 1482 1483 1484 1485 1486 1488 1489 1489 1489 1489 1491 1492 1494 1496 1496 1496 1495 1496 1496 1495 1494 1495 1495 1496 1499 1503 1505 1503 1499 1508 1521 1521 1520 1524 1521 1517 1515 1515 1516 1521 1532 1543 1540 1530 1527 1529 1530 1531 1531 1531 1533 1535 1538 1540 1543 1545 1547 1549 1551
1504 1503 1501 1500 1499 1498 1496 1495 1494 1492 1491 1489 1489 1488 1488 1488 1489 1489 1489 1489 1489 1489 1489 1489 1489 1489 1486 1481 1481 1481 1482 1483 1484 1486 1487 1488 1489 1489 1490 1491 1492 1494 1495 1495 1496 1495 1495 1495 1495 1495 1495 1496 1497 1500 1509 1513 1510 1504 1504 1514 1517 1517 1522 1524 1520 1515 1514 1517 1520 1530 1538 1532 1524 1524 1528 1529 1529 1530 1531 1533 1534 1537 1540 1542 1544 1546 1548 1549
1503 1502 1500 1499 1498 1497 1495 1494 1493 1491 1490 1489 1488 1488 1488 1488 1488 1489 1488 1488 1488 1489 1489 1488 1489 1490 1484 1480 1481 1481 1482 1484 1485 1486 1487 1488 1489 1490 1491 1492 1492 1494 1494 1495 1495 1495 1496 1494 1494 1497 1497 1498 1499 1502 1511 1511 1505 1505 1507 1512 1516 1517 1518 1519 1518 1513 1512 1518 1521 1526 1532 1528 1524 1524 1525 1527 1528 1529 1530 1531 1533 1536 1539 1541 1543 1545 1547 1548
1503 1501 1500 1499 1497 1496 1495 1494 1492 1491 1489 1488 1488 1487 1487 1488 1488 1488 1488 1488 1488 1487 1487 1486 1487 1487 1482 1480 1481 1481 1482 1484 1484 1486 1486 1487 1489 1490 1491 1492 1493 1493 1495 1496 1496 1494 1495 1496 1497 1501 1502 1501 1499 1500 1504 1501 1499 1503 1504 1509 1516 1520 1518 1514 1511 1507 1508 1517 1521 1522 1526 1527 1526 1525 1523 1525 1526 1528 1530 1530 1532 1536 1538 1540 1542 1544 1546 1547
1502 1501 1500 1498 1497 1496 1494 1493 1492 1490 1489 1488 1488 1487 1487 1487 1487 1487 1487 1486 1485 1484 1483 1483 1483 1482 1479 1479 1479 1481 1482 1483 1484 1485 1485 1487 1488 1489 1490 1492 1493 1493 1495 1496 1497 1494 1495 1500 1503 1502 1501 1499 1496 1496 1497 1496 1498 1501 1503 1507 1512 1516 1518 1512 1509 1506 1504 1514 1520 1517 1522 1525 1525 1524 1523 1526 1528 1529 1531 1531 1532 1535 1537 1539 1541 1543 1545 1547
1502 1501 1499 1498 1497 1496 1495 1493 1492 1490 1489 1488 1488 1488 1487 1487 1488 1488 1486 1483 1482 1482 1481 1481 1481 1480 1478 1478 1478 1480 1482 1483 1483 1484 1485 1486 1487 1489 1490 1490 1492 1495 1495 1495 1496 1495 1496 1503 1503 1498 1496 1494 1493 1493 1494 1496 1498 1501 1503 1508 1511 1511 1511 1507 1505 1506 1503 1510 1518 1515 1521 1526 1524 1526 1526 1528 1533 1533 1533 1532 1532 1535 1537 1539 1540 1542 1544 1546
1502 1501 1499 1498 1497 1496 1494 1493 1492 1490 1490 1489 1489 1488 1488 1488 1488 1488 1487 1483 1480 1479 1479 1478 1479 1479 1477 1476 1476 1478 1481 1482 1483 1483 1484 1485 1487 1488 1489 1490 1493 1495 1494 1494 1497 1499 1502 1503 1498 1493 1491 1491 1493 1492 1493 1496 1498 1501 1501 1506 1512 1509 1507 1508 1505 1505 1504 1509 1518 1517 1523 1531 1530 1531 1533 1534 1536 1537 1536 1534 1533 1535 1536 1538 1540 1541 1543 1545
1502 1500 1499 1498 1497 1496 1494 1493 1492 1491 1490 1489 1489 1488 1488 1488 1488 1488 1488 1485 1480 1477 1476 1476 1477 1477 1475 1476 1475 1476 1478 1479 1481 1482 1483 1485 1486 1487 1489 1490 1493 1494 1494 1496 1499 1503 1506 1500 1491 1489 1489 1491 1494 1493 1494 1497 1498 1500 1500 1505 1510 1505 1509 1516 1511 1509 1508 1509 1516 1519 1528 1539 1538 1538 1538 1537 1537 1537 1539 1538 1536 1536 1536 1537 1539 1541 1542 1544
1501 1500 1499 1498 1497 1496 1494 1493 1492 1491 1490 1489 1489 1489 1488 1488 1487 1487 1486 1485 1482 1477 1474 1475 1476 1475 1475 1476 1475 1475 1477 1478 1479 1480 1482 1483 1484 1486 1487 1488 1491 1494 1494 1494 1496 1501 1500 1491 1484 1486 1489 1491 1494 1494 1494 1499 1500 1498 1496 1500 1504 1501 1503 1507 1507 1509 1511 1513 1516 1522 1539 1547 1544 1545 1545 1540 1538 1539 1540 1540 1539 1537 1537 1538 1539 1540 1542 1543
1500 1500 1499 1497 1497 1495 1494 1493 1492 1491 1490 1489 1489 1488 1488 1487 1486 1486 1485 1486 1485 1477 1473 1475 1475 1475 1475 1476 1476 1475 1477 1478 1478 1479 1480 1481 1483 1485 1485 1486 1490 1493 1493 1493 1495 1499 1494 1485 1483 1487 1489 1489 1494 1495 1493 1497 1501 1499 1492 1491 1495 1496 1496 1500 1503 1510 1522 1531 1524 1523 1546 1555 1545 1546 1548 1543 1541 1541 1540 1538 1538 1538 1537 1538 1539 1540 1541 1543
1500 1499 1498 1497 1496 1494 1494 1493 1492 1491 1490 1490 1489 1488 1488 1487 1486 1486 1485 1489 1489 1478 1474 1475 1475 1475 1474 1475 1476 1476 1480 1478 1476 1478 1479 1480 1481 1483 1485 1486 1487 1489 1489 1489 1493 1494 1488 1482 1483 1487 1488 1489 1492 1493 1489 1491 1499 1500 1487 1481 1486 1489 1493 1499 1503 1511 1525 1531 1520 1517 1539 1555 1549 1546 1545 1542 1540 1540 1539 1537 1536 1537 1536 1536 1537 1539 1541 1542
1500 1499 1498 1497 1495 1494 1494 1492 1492 1491 1489 1490 1489 1487 1488 1486 1487 1485 1486 1497 1494 1478 1475 1476 1475 1475 1474 1474 1475 1477 1483 1479 1474 1477 1477 1479 1480 1481 1485 1486 1485 1486 1483 1486 1494 1491 1482 1481 1484 1485 1487 1489 1491 1491 1485 1484 1496 1496 1479 1474 1483 1486 1491 1497 1501 1509 1513 1513 1517 1517 1527 1547 1553 1544 1539 1538 1539 1540 1539 1536 1536 1535 1535 1536 1536 1538 1540 1542
1499 1498 1497 1496 1495 1494 1493 1492 1492 1491 1490 1490 1488 1488 1487 1486 1487 1484 1489 1505 1496 1475 1474 1475 1473 1474 1473 1474 1474 1474 1478 1476 1476 1478 1476 1478 1479 1479 1484 1484 1484 1486 1481 1487 1497 1487 1477 1480 1482 1483 1487 1489 1487 1483 1478 1480 1490 1486 1473 1473 1479 1481 1488 1492 1498 1506 1506 1513 1532 1528 1522 1542 1552 1540 1534 1536 1538 1541 1539 1535 1534 1533 1534 1535 1536 1537 1539 1541
1498 1497 1497 1496 1495 1494 1493 1492 1491 1490 1490 1489 1487 1488 1486 1486 1486 1484 1494 1504 1489 1474 1475 1474 1473 1474 1472 1473 1474 1473 1474 1474 1476 1477 1474 1477 1478 1478 1482 1481 1481 1483 1481 1484 1489 1483 1476 1476 1475 1478 1485 1485 1480 1474 1471 1478 1483 1475 1470 1473 1476 1479 1486 1492 1501 1507 1507 1520 1538 1530 1521 1539 1551 1540 1536 1538 1537 1536 1534 1531 1530 1530 1531 1534 1534 1536 1538 1540
1498 1497 1496 1495 1494 1493 1492 1491 1491 1490 1490 1488 1488 1487 1486 1486 1486 1493 1505 1501 1484 1475 1475 1474 1474 1473 1472 1474 1475 1474 1474 1475 1474 1475 1476 1477 1477 1478 1479 1479 1479 1481 1481 1480 1481 1479 1473 1470 1470 1473 1476 1475 1472 1470 1468 1472 1474 1470 1471 1476 1480 1484 1489 1498 1503 1503 1516 1531 1529 1520 1517 1529 1546 1544 1535 1532 1528 1524 1525 1526 1526 1526 1529 1531 1533 1535 1536 1538
1497 1496 1495 1495 1494 1493 1491 1491 1490 1490 1489 1489 1488 1486 1486 1486 1489 1503 1506 1490 1480 1479 1474 1474 1474 1472 1473 1476 1477 1476 1475 1475 1473 1474 1478 1477 1478 1479 1479 1481 1481 1483 1485 1482 1479 1475 1471 1471 1471 1467 1467 1466 1468 1470 1467 1466 1467 1470 1475 1481 1488 1493 1496 1509 1510 1505 1526 1539 1521 1513 1515 1519 1535 1539 1526 1521 1517 1515 1518 1521 1521 1523 1526 1528 1531 1533 1533 1535
1496 1496 1495 1494 1493 1492 1491 1491 1490 1490 1489 1489 1487 1485 1487 1491 1496 1503 1496 1482 1483 1483 1475 1474 1473 1472 1474 1475 1477 1476 1475 1477 1474 1474 1478 1478 1480 1480 1480 1483 1484 1489 1493 1487 1482 1478 1474 1473 1469 1465 1463 1462 1468 1474 1472 1469 1468 1473 1480 1484 1496 1505 1510 1526 1532 1524 1528 1525 1509 1508 1514 1518 1525 1522 1514 1514 1514 1512 1514 1516 1518 1521 1524 1527 1529 1530 1531 1533
1496 1495 1494 1494 1492 1491 1491 1490 1490 1490 1490 1488 1487 1485 1488 1498 1503 1498 1488 1484 1484 1479 1472 1472 1471 1471 1473 1475 1477 1475 1475 1477 1474 1474 1476 1476 1481 1481 1479 1479 1479 1488 1493 1488 1488 1486 1481 1475 1468 1468 1466 1459 1464 1475 1479 1477 1474 1477 1483 1487 1498 1511 1521 1534 1538 1531 1525 1516 1506 1502 1509 1521 1525 1516 1512 1513 1513 1512 1513 1516 1519 1520 1523 1526 1527 1529 1529 1530
1495 1494 1494 1493 1492 1491 1490 1490 1490 1489 1489 1488 1487 1487 1492 1502 1500 1490 1485 1483 1478 1474 1472 1472 1472 1473 1474 1475 1476 1474 1477 1478 1473 1475 1476 1477 1483 1484 1481 1479 1477 1482 1486 1488 1489 1488 1490 1487 1473 1469 1468 1461 1461 1468 1473 1475 1475 1477 1477 1481 1491 1499 1511 1523 1522 1521 1524 1523 1514 1507 1515 1529 1529 1521 1517 1515 1513 1514 1516 1518 1520 1521 1523 1524 1525 1527 1527 1529
1494 1494 1493 1492 1492 1491 1490 1490 1490 1489 1490 1487 1486 1491 1498 1502 1494 1488 1485 1480 1475 1475 1473 1470 1471 1476 1477 1475 1474 1472 1476 1478 1474 1476 1479 1479 1483 1485 1482 1480 1478 1479 1485 1492 1489 1483 1489 1487 1469 1463 1462 1459 1461 1462 1462 1470 1478 1478 1473 1480 1489 1487 1491 1501 1502 1503 1514 1523 1524 1524 1532 1534 1527 1520 1517 1514 1515 1516 1518 1521 1523 1522 1522 1523 1525 1526 1527 1530
1493 1493 1493 1492 1491 1491 1490 1490 1489 1489 1489 1487 1490 1496 1497 1494 1489 1486 1483 1477 1477 1477 1475 1474 1475 1479 1482 1478 1476 1474 1473 1475 1475 1478 1480 1479 1482 1484 1482 1480 1477 1476 1482 1488 1488 1486 1491 1484 1467 1463 1462 1457 1460 1460 1459 1469 1479 1480 1479 1483 1482 1476 1481 1493 1497 1495 1505 1525 1533 1535 1541 1536 1527 1524 1518 1516 1518 1518 1520 1526 1529 1528 1524 1523 1525 1526 1527 1529
1493 1493 1492 1491 1491 1491 1491 1490 1489 1490 1489 1489 1496 1498 1492 1487 1483 1481 1479 1477 1477 1476 1478 1484 1483 1483 1487 1485 1481 1477 1475 1476 1477 1479 1482 1482 1484 1485 1482 1480 1477 1476 1478 1481 1483 1485 1490 1486 1471 1466 1467 1460 1456 1459 1460 1463 1470 1479 1485 1482 1475 1476 1480 1488 1499 1503 1514 1536 1540 1537 1543 1542 1536 1533 1525 1522 1524 1524 1524 1528 1532 1535 1532 1527 1527 1528 1528 1529
1494 1493 1492 1491 1490 1490 1490 1490 1490 1490 1489 1492 1498 1496 1488 1485 1481 1478 1478 1477 1477 1476 1480 1488 1486 1481 1486 1489 1485 1479 1477 1481 1481 1481 1483 1484 1487 1486 1483 1481 1478 1476 1475 1476 1481 1481 1483 1489 1478 1466 1468 1464 1456 1462 1469 1466 1465 1473 1478 1474 1479 1492 1493 1490 1498 1507 1522 1543 1547 1542 1543 1542 1540 1537 1530 1529 1530 1528 1528 1529 1532 1537 1537 1533 1530 1529 1530 1530
1494 1493 1491 1490 1490 1490 1490 1490 1490 1491 1492 1496 1500 1494 1486 1484 1481 1478 1478 1477 1477 1479 1483 1486 1485 1482 1483 1486 1487 1481 1480 1484 1484 1484 1486 1488 1490 1487 1483 1482 1479 1478 1475 1474 1480 1480 1479 1490 1489 1471 1464 1465 1463 1469 1477 1476 1469 1469 1473 1474 1479 1489 1491 1489 1492 1499 1515 1537 1547 1549 1548 1542 1538 1534 1530 1530 1530 1528 1530 1531 1532 1535 1536 1533 1531 1531 1532 1532
1494 1493 1491 1490 1490 1490 1490 1490 1490 1492 1495 1498 1497 1492 1485 1484 1482 1479 1479 1478 1478 1480 1483 1484 1484 1485 1484 1483 1485 1483 1482 1485 1485 1485 1488 1489 1488 1486 1483 1483 1480 1479 1477 1475 1479 1480 1479 1488 1494 1480 1467 1470 1475 1474 1476 1478 1476 1476 1480 1483 1483 1483 1483 1486 1488 1491 1505 1526 1542 1550 1552 1544 1533 1528 1528 1528 1528 1529 1530 1529 1532 1533 1533 1532 1532 1533 1534 1534
1494 1493 1491 1490 1490 1490 1489 1491 1491 1492 1495 1495 1492 1489 1486 1485 1484 1482 1480 1479 1479 1479 1481 1482 1483 1486 1485 1484 1486 1485 1484 1486 1486 1486 1489 1490 1490 1489 1485 1483 1482 1479 1478 1479 1481 1482 1483 1489 1493 1487 1478 1478 1478 1471 1468 1470 1473 1477 1481 1482 1484 1484 1486 1494 1500 1496 1499 1514 1527 1537 1548 1545 1531 1526 1527 1527 1529 1532 1531 1528 1530 1531 1532 1533 1533 1534 1535 1536
1494 1493 1491 1489 1490 1490 1489 1491 1492 1492 1493 1492 1489 1488 1486 1486 1485 1484 1482 1481 1481 1480 1480 1481 1483 1484 1485 1485 1485 1485 1486 1489 1489 1489 1491 1490 1490 1490 1486 1482 1482 1480 1481 1485 1485 1483 1483 1487 1491 1489 1483 1479 1474 1468 1466 1467 1467 1471 1476 1478 1480 1483 1486 1496 1505 1503 1503 1511 1516 1525 1543 1545 1532 1526 1529 1530 1532 1535 1535 1531 1529 1531 1532 1532 1534 1535 1536 1537
1493 1491 1489 1488 1489 1489 1490 1492 1492 1492 1491 1489 1486 1487 1487 1486 1486 1485 1485 1484 1483 1483 1483 1483 1483 1483 1485 1485 1484 1485 1487 1490 1491 1490 1491 1490 1489 1488 1486 1483 1482 1482 1483 1487 1486 1482 1483 1488 1493 1491 1484 1476 1471 1467 1466 1466 1468 1473 1475 1475 1478 1481 1483 1488 1492 1495 1506 1516 1515 1526 1546 1546 1533 1529 1531 1533 1534 1535 1539 1538 1533 1533 1534 1533 1535 1536 1537 1538
1492 1490 1488 1488 1489 1489 1491 1493 1493 1492 1490 1487 1487 1488 1487 1487 1487 1487 1488 1487 1486 1486 1486 1486 1485 1484 1485 1484 1485 1487 1490 1493 1492 1490 1491 1491 1489 1487 1485 1484 1484 1484 1485 1488 1487 1485 1488 1492 1495 1499 1497 1491 1486 1483 1480 1476 1475 1478 1479 1476 1477 1478 1479 1483 1487 1493 1507 1516 1512 1525 1546 1543 1531 1530 1531 1531 1531 1533 1539 1541 1536 1534 1535 1535 1537 1537 1537 1538
1492 1491 1489 1488 1489 1490 1490 1491 1490 1490 1490 1489 1490 1490 1490 1490 1490 1489 1489 1488 1487 1487 1488 1488 1486 1485 1485 1485 1486 1488 1491 1493 1493 1492 1491 1491 1489 1487 1486 1485 1486 1485 1485 1487 1485 1485 1490 1492 1494 1503 1511 1512 1511 1506 1498 1490 1484 1482 1480 1477 1477 1478 1478 1482 1490 1498 1510 1515 1512 1521 1538 1540 1533 1531 1531 1530 1530 1532 1536 1540 1538 1536 1537 1537 1538 1538 1539 1539
1494 1495 1493 1490 1490 1490 1490 1489 1488 1488 1490 1491 1493 1492 1492 1492 1491 1490 1490 1489 1488 1488 1488 1488 1487 1487 1488 1489 1491 1493 1493 1493 1494 1494 1495 1494 1491 1488 1487 1486 1487 1486 1486 1486 1484 1485 1490 1492 1494 1501 1507 1508 1507 1500 1493 1489 1488 1486 1483 1479 1478 1479 1478 1481 1490 1499 1506 1513 1518 1519 1523 1533 1538 1534 1532 1531 1530 1530 1535 1539 1539 1539 1538 1539 1539 1539 1539 1539
1497 1498 1498 1496 1494 1491 1490 1489 1488 1489 1490 1492 1495 1495 1494 1494 1494 1492 1492 1492 1491 1490 1489 1489 1489 1490 1491 1492 1495 1498 1498 1496 1496 1497 1498 1497 1493 1490 1488 1487 1488 1488 1486 1485 1484 1486 1492 1496 1496 1497 1499 1497 1495 1492 1487 1486 1487 1486 1484 1483 1481 1480 1480 1482 1489 1496 1499 1510 1525 1522 1513 1524 1535 1531 1529 1530 1529 1529 1533 1537 1540 1539 1538 1539 1539 1540 1540 1541
1498 1499 1499 1499 1499 1496 1494 1491 1490 1490 1492 1493 1495 1496 1496 1497 1498 1497 1496 1494 1493 1493 1494 1495 1494 1492 1493 1493 1496 1501 1501 1500 1501 1501 1501 1499 1496 1494 1492 1489 1489 1489 1487 1487 1487 1487 1495 1500 1498 1495 1495 1492 1490 1489 1486 1485 1485 1486 1486 1485 1484 1483 1483 1484 1489 1493 1493 1502 1518 1520 1515 1520 1525 1524 1525 1526 1526 1528 1532 1536 1539 1539 1538 1538 1538 1540 1541 1542
1499 1500 1498 1497 1498 1497 1495 1493 1491 1492 1494 1494 1496 1498 1498 1499 1501 1500 1499 1498 1498 1497 1498 1501 1500 1496 1495 1495 1498 1503 1504 1505 1507 1506 1504 1503 1500 1499 1498 1495 1493 1491 1489 1489 1489 1490 1496 1501 1500 1497 1496 1493 1490 1488 1486 1486 1486 1487 1488 1486 1485 1485 1484 1485 1490 1491 1492 1499 1508 1515 1520 1521 1520 1521 1524 1524 1526 1529 1532 1536 1538 1538 1538 1538 1538 1540 1542 1543
1501 1502 1500 1498 1497 1496 1494 1494 1493 1494 1496 1496 1499 1500 1499 1501 1502 1502 1500 1501 1503 1501 1501 1504 1503 1499 1498 1499 1501 1505 1506 1506 1508 1507 1505 1505 1504 1502 1503 1501 1497 1495 1493 1493 1492 1492 1496 1500 1501 1500 1500 1497 1494 1491 1489 1488 1488 1489 1489 1486 1486 1488 1488 1490 1494 1495 1499 1507 1512 1515 1524 1526 1522 1521 1523 1525 1528 1530 1532 1536 1537 1537 1539 1539 1539 1539 1541 1543
1503 1504 1503 1501 1500 1498 1496 1496 1495 1496 1498 1499 1500 1501 1501 1503 1503 1503 1501 1502 1504 1503 1502 1504 1504 1501 1501 1502 1503 1505 1505 1503 1504 1504 1503 1504 1504 1504 1503 1501 1498 1498 1497 1497 1496 1495 1497 1501 1502 1505 1508 1504 1498 1496 1494 1488 1487 1490 1491 1489 1488 1490 1493 1494 1495 1496 1500 1510 1516 1520 1526 1526 1521 1520 1523 1525 1528 1531 1533 1534 1536 1538 1539 1539 1539 1540 1541 1543
1504 1504 1503 1503 1502 1500 1500 1499 1497 1499 1501 1501 1500 1500 1502 1504 1503 1503 1505 1505 1503 1504 1504 1504 1503 1503 1504 1505 1504 1505 1504 1503 1503 1502 1502 1502 1501 1501 1501 1499 1497 1498 1499 1499 1499 1499 1500 1502 1504 1510 1516 1511 1502 1500 1494 1489 1495 1501 1498 1493 1490 1489 1492 1494 1495 1495 1496 1501 1511 1518 1521 1519 1517 1518 1522 1526 1529 1531 1533 1534 1535 1538 1540 1540 1541 1541 1542 1544